[[{"header":{"parameterUnit":"m.s-1","parameterCategory":1,"la1":30.2991,"la2":30.254,"lo1":-89.0895,"lo2":-89.0444,"dy":0.0017,"dx":0.0017,"nx":28,"ny":28,"refTime":"2024-05-17T03:00:00:Z","depth":0,"parameterNumber":2,"parameterNumberName":"U-component_of_WINDS"},"data":[0,0,0,0,0,0,0,0,0,0,0,0,0,0,0,0,0,0,0,0,0,0,0,0,0,0,0,0,0,0,0,0,0,0,0,0,0,0,0,0,0,0,0,0,0,0,0,0,0,0,0,0,0,0,0,0,0,0,-0.7469,-0.747,0,-0.7558,-0.7559,-0.756,-0.7534,-0.7532,-0.753,-0.7528,-0.7635,-0.7639,-0.7644,0,0,0,0,0,0,0,0,0,0,0,0,0,-0.7291,-0.7295,-0.7469,-0.747,-0.7471,-0.7558,-0.7559,-0.756,-0.7534,-0.7532,-0.7529,-0.7527,-0.7634,-0.7639,-0.7644,0,0,0,0,0,0,0,0,0,0,0,0,0,-0.7374,-0.7296,-0.7469,-0.7468,-0.7469,-0.7557,-0.7559,-0.7561,-0.7535,-0.7532,-0.7529,-0.7526,-0.7632,-0.7638,-0.7645,-0.7744,0,0,-0.7666,-0.7669,0,0,0,0,0,0,0,0,-0.7369,-0.738,-0.7467,-0.7469,-0.747,-0.7531,-0.7535,-0.7623,-0.7535,-0.751,-0.7528,-0.7525,-0.7604,-0.7613,-0.7636,-0.7749,-0.7754,-0.7667,-0.7671,-0.7674,-0.7676,0,0,0,0,0,0,0,-0.7363,-0.7376,-0.7505,-0.7469,-0.747,-0.7468,-0.7477,-0.7552,-0.7573,-0.7512,-0.751,-0.752,-0.7604,-0.763,-0.7639,-0.7756,-0.7667,-0.7673,-0.7677,-0.768,-0.7954,-0.7957,0,0,0,0,0,0,-0.7355,-0.7372,-0.7502,-0.7507,-0.7411,-0.7474,-0.7483,-0.7515,-0.7571,-0.7577,-0.7523,-0.7519,-0.7619,-0.7631,-0.7642,-0.7761,-0.7674,-0.768,-0.7684,-0.7951,-0.7955,-0.7958,0,0,0,0,0,0,-0.7351,-0.7366,-0.7498,-0.7439,-0.7455,-0.748,-0.7515,-0.7518,-0.7543,-0.7579,-0.7584,-0.7544,-0.7618,-0.7633,-0.7718,-0.7765,-0.7684,-0.769,-0.7947,-0.7952,-0.7956,-0.8001,0,0,0,0,0,0,-0.7346,-0.7365,-0.74,-0.744,-0.7459,-0.7568,-0.7518,-0.7522,-0.7553,-0.7549,-0.76,-0.7607,-0.7616,-0.7708,-0.7725,-0.7773,-0.7695,-0.7943,-0.7949,-0.7955,-0.7995,-0.8006,-0.8016,0,0,0,0,0,-0.734,-0.7413,-0.7402,-0.7418,-0.7502,-0.7571,-0.7583,-0.7588,-0.7557,-0.7594,-0.7617,-0.7605,-0.7756,-0.7717,-0.7736,-0.7787,-0.794,-0.7948,-0.7955,-0.7991,-0.8004,-0.8016,0,0,0,0,0,0,-0.7384,-0.7418,-0.7407,-0.7494,-0.7529,-0.7566,-0.7613,-0.7602,-0.7651,-0.7646,-0.7655,-0.7667,-0.7754,-0.7779,-0.7734,-0.7885,-0.7845,-0.7856,-0.7866,-0.7879,-0.7889,-0.7882,-0.7701,0,0,0,0,0,-0.7403,-0.7452,-0.7481,-0.7555,-0.7573,-0.759,-0.7621,-0.7621,-0.766,-0.7677,-0.7706,-0.7749,-0.7806,-0.7844,-0.7898,-0.7998,-0.801,-0.8043,-0.8053,-0.8061,-0.8072,-0.8126,-0.8141,-0.7981,-0.7981,-0.7981,0,0,-0.7445,-0.7469,-0.7501,-0.7565,-0.7592,-0.7646,-0.7603,-0.7663,-0.7704,-0.7688,-0.7768,-0.7791,-0.784,-0.7932,-0.7975,-0.7956,-0.8118,-0.807,-0.8077,-0.8083,-0.8135,-0.815,-0.8163,-0.7986,-0.7985,-0.7985,0,0,-0.7549,-0.7571,-0.7634,-0.7661,-0.7701,-0.7711,-0.7727,-0.7765,-0.7778,-0.7857,-0.7845,-0.7898,-0.7996,-0.803,-0.8061,-0.8174,-0.8165,-0.8192,-0.8247,-0.83,-0.8313,-0.8324,-0.8365,-0.8379,-0.8202,-0.8202,-0.8202,0,-0.7597,-0.7673,-0.767,-0.7729,-0.7759,-0.7739,-0.7806,-0.7834,-0.7893,-0.7915,-0.7891,-0.8012,-0.8044,-0.8144,-0.8171,-0.8196,-0.8216,-0.8187,-0.831,-0.8321,-0.8332,-0.8371,-0.8387,-0.8205,-0.8205,-0.8205,-0.8204,0,-0.7731,-0.7784,-0.7831,-0.7881,-0.7915,-0.7979,-0.7989,-0.8025,-0.8022,-0.8036,-0.8119,-0.8155,-0.8216,-0.824,-0.824,-0.834,-0.8327,-0.8307,-0.8266,-0.835,-0.8387,-0.8402,-0.8209,-0.8208,-0.8207,-0.8207,0,0,-0.7868,-0.7911,-0.7929,-0.795,-0.7991,-0.8035,-0.8098,-0.8152,-0.8183,-0.8224,-0.8279,-0.836,-0.834,-0.8375,-0.8379,-0.8425,-0.8513,-0.84,-0.8401,-0.842,-0.8626,-0.8641,-0.8659,-0.8506,-0.8509,-0.8511,-0.8622,0,-0.7975,-0.8079,-0.8077,-0.8176,-0.8226,-0.8207,-0.8263,-0.8296,-0.8311,-0.8359,-0.8377,-0.8434,-0.8404,-0.8425,-0.8469,-0.8493,-0.8555,-0.8485,-0.8561,-0.8564,-0.855,-0.8678,-0.8695,-0.8798,-0.8637,-0.8639,-0.8641,0,-0.8114,-0.8152,-0.8254,-0.8285,-0.8306,-0.8355,-0.8404,-0.8448,-0.8487,-0.8495,-0.8531,-0.8527,-0.8595,-0.855,-0.8646,-0.8598,-0.8629,-0.8645,-0.8649,-0.8658,-0.8608,-0.8691,-0.8831,-0.8846,-0.8664,-0.8662,-0.866,0,-0.8204,-0.8281,-0.8351,-0.8371,-0.841,-0.8444,-0.8463,-0.8498,-0.853,-0.8574,-0.8595,-0.8649,-0.8679,-0.8722,-0.8734,-0.87,-0.8829,-0.8786,-0.884,-0.884,-0.887,-0.8868,-0.9018,-0.8888,-0.8888,-0.8888,-0.8888,0,-0.8324,-0.8388,-0.8392,-0.8436,-0.8507,-0.8506,-0.8578,-0.8594,-0.8625,-0.8675,-0.8664,-0.8712,-0.8723,-0.8775,-0.8785,-0.8862,-0.8876,-0.8887,-0.8889,-0.8888,-0.8887,-0.891,-0.8904,-0.8892,-0.8891,-0.889,-0.889,0,-0.8438,-0.8442,-0.8518,-0.8546,-0.8555,-0.8606,-0.8633,-0.8677,-0.8688,-0.8751,-0.8766,-0.8786,-0.8845,-0.886,-0.8933,-0.894,-0.9032,-0.9027,-0.9017,-0.9017,-0.9071,-0.9066,-0.9241,-0.9265,-0.9119,-0.912,-0.9121,0,-0.8515,-0.8562,-0.8593,-0.8622,-0.8641,-0.8689,-0.872,-0.8721,-0.8755,-0.88,-0.8839,-0.8895,-0.8941,-0.9037,-0.9061,-0.9117,-0.9114,-0.9172,-0.9123,-0.912,-0.9116,-0.9113,-0.9119,-0.9182,-0.9183,-0.9185,-0.9186,0,-0.8651,-0.865,-0.8692,-0.8734,-0.8769,-0.8804,-0.8838,-0.8864,-0.887,-0.8909,-0.8965,-0.9,-0.9071,-0.9128,-0.9183,-0.9208,-0.92,-0.92,-0.9216,-0.9216,-0.9209,-0.9214,-0.9043,-0.9197,-0.9196,-0.9195,-0.9194,-0.9194,-0.875,-0.879,-0.8817,-0.8864,-0.8888,-0.8918,-0.896,-0.8974,-0.902,-0.9073,-0.9072,-0.9135,-0.9173,-0.9244,-0.9271,-0.9323,-0.9306,-0.9329,-0.9335,-0.9341,-0.9346,-0.9198,-0.9334,-0.9333,-0.9333,-0.9333,-0.9332,0,-0.8886,-0.8901,-0.8944,-0.8987,-0.9025,-0.9006,-0.9042,-0.9076,-0.9129,-0.9162,-0.9204,-0.927,-0.9325,-0.9351,-0.9407,-0.9443,-0.9441,-0.9458,-0.9456,-0.9462,-0.9357,-0.9338,-0.9459,-0.9459,-0.9459,-0.9459,-0.9459,-0.9459,-0.8961,-0.9028,-0.9031,-0.911,-0.9127,-0.9183,-0.9205,-0.9234,-0.926,-0.9331,-0.9374,-0.9389,-0.942,-0.9477,-0.9527,-0.9534,-0.9556,-0.9575,-0.958,-0.9482,-0.947,-0.9457,-0.944,-0.9579,-0.9579,-0.9681,-0.9682,-0.9682]},{"header":{"parameterUnit":"m.s-1","parameterCategory":1,"la1":30.2991,"la2":30.254,"lo1":-89.0895,"lo2":-89.0444,"dy":0.0017,"dx":0.0017,"nx":28,"ny":28,"refTime":"2024-05-17T03:00:00:Z","depth":0,"parameterNumber":3,"parameterNumberName":"V-component_of_WINDS"},"data":[0,0,0,0,0,0,0,0,0,0,0,0,0,0,0,0,0,0,0,0,0,0,0,0,0,0,0,0,0,0,0,0,0,0,0,0,0,0,0,0,0,0,0,0,0,0,0,0,0,0,0,0,0,0,0,0,0,0,1.7443,1.7443,0,1.737,1.7369,1.7368,1.742,1.7422,1.7424,1.7427,1.7336,1.7331,1.7326,0,0,0,0,0,0,0,0,0,0,0,0,0,1.7614,1.7611,1.7443,1.7442,1.7442,1.737,1.7369,1.7368,1.7419,1.7422,1.7425,1.7428,1.7337,1.7332,1.7326,0,0,0,0,0,0,0,0,0,0,0,0,0,1.754,1.761,1.7443,1.7459,1.746,1.737,1.7369,1.7367,1.7419,1.7422,1.7426,1.7429,1.7339,1.7332,1.7325,1.7212,0,0,1.7304,1.7301,0,0,0,0,0,0,0,0,1.7544,1.7533,1.7458,1.7458,1.7458,1.7408,1.7396,1.7315,1.7418,1.7434,1.7427,1.7431,1.7356,1.7348,1.7325,1.7207,1.7204,1.7304,1.7299,1.7296,1.7294,0,0,0,0,0,0,0,1.7549,1.7537,1.7414,1.7456,1.7457,1.7465,1.7458,1.7381,1.7375,1.7433,1.7436,1.7428,1.7356,1.7332,1.7324,1.7202,1.7304,1.7298,1.7293,1.7291,1.6983,1.6979,0,0,0,0,0,0,1.7555,1.7541,1.7416,1.7412,1.7511,1.7459,1.7452,1.742,1.7376,1.7373,1.7425,1.743,1.7342,1.7332,1.7321,1.7181,1.7296,1.729,1.7286,1.6987,1.6982,1.6977,0,0,0,0,0,0,1.7558,1.7543,1.7419,1.7477,1.7462,1.7452,1.7417,1.7417,1.7393,1.7371,1.7368,1.7402,1.7345,1.733,1.7239,1.7179,1.7287,1.728,1.6991,1.6985,1.698,1.6903,0,0,0,0,0,0,1.7563,1.7544,1.7504,1.7476,1.7459,1.7342,1.7413,1.7413,1.7382,1.7389,1.7348,1.7345,1.7346,1.7249,1.7232,1.7171,1.7275,1.6997,1.6989,1.6982,1.6911,1.6895,1.6882,0,0,0,0,0,1.7569,1.7483,1.7502,1.7487,1.741,1.7339,1.7328,1.7336,1.7378,1.7334,1.732,1.7346,1.719,1.7239,1.722,1.7157,1.7,1.6991,1.6982,1.6917,1.6898,1.6882,0,0,0,0,0,0,1.7499,1.748,1.75,1.7404,1.7373,1.7348,1.7294,1.7316,1.7269,1.7277,1.7284,1.7274,1.7177,1.7159,1.7214,1.7042,1.7101,1.7087,1.7058,1.7039,1.7025,1.7029,1.7269,0,0,0,0,0,1.7474,1.7423,1.7407,1.7323,1.7307,1.7303,1.7273,1.7282,1.7248,1.7234,1.7213,1.7175,1.7117,1.7078,1.7024,1.691,1.6899,1.6857,1.6843,1.6831,1.6817,1.6751,1.6731,1.6948,1.6948,1.6948,0,0,1.7417,1.7401,1.7367,1.7308,1.7286,1.7227,1.7291,1.7228,1.7183,1.7223,1.7135,1.7118,1.7076,1.6972,1.6925,1.6953,1.6756,1.682,1.681,1.6803,1.674,1.6719,1.6701,1.6942,1.6943,1.6944,0,0,1.7285,1.7271,1.7197,1.7175,1.7141,1.714,1.7122,1.7094,1.7085,1.6999,1.7027,1.6972,1.6873,1.6841,1.6811,1.6668,1.6688,1.665,1.6572,1.6507,1.649,1.6475,1.6418,1.6398,1.6638,1.6638,1.6638,0,1.7218,1.7137,1.7155,1.709,1.7061,1.7101,1.7023,1.6998,1.6946,1.6923,1.6958,1.6833,1.6808,1.6695,1.666,1.6637,1.6612,1.6652,1.6493,1.6477,1.6463,1.6409,1.6388,1.6633,1.6634,1.6634,1.6635,0,1.7054,1.6997,1.6941,1.6895,1.686,1.6789,1.6792,1.6754,1.6767,1.676,1.6668,1.664,1.6579,1.6554,1.6564,1.6441,1.6459,1.6493,1.655,1.6437,1.6386,1.6366,1.6626,1.6628,1.6629,1.6631,0,0,1.687,1.6839,1.6817,1.6796,1.6763,1.6716,1.6645,1.6591,1.6555,1.6519,1.6455,1.6372,1.6403,1.6369,1.6377,1.6321,1.6203,1.6361,1.636,1.6327,1.6058,1.6029,1.6005,1.6219,1.6215,1.6212,1.606,0,1.6733,1.6614,1.6629,1.6512,1.6457,1.6495,1.6432,1.6402,1.6394,1.6341,1.6331,1.627,1.6319,1.6298,1.6245,1.6228,1.6148,1.6241,1.6152,1.6148,1.6155,1.5979,1.5948,1.5806,1.6041,1.6037,1.6035,0,1.6555,1.6517,1.6396,1.6371,1.6348,1.6292,1.6242,1.6194,1.6159,1.6157,1.6121,1.6137,1.606,1.6125,1.6014,1.6077,1.6042,1.6029,1.6023,1.6009,1.608,1.5955,1.5761,1.5737,1.6005,1.6007,1.6009,0,1.6427,1.6345,1.6262,1.6243,1.6213,1.6171,1.6156,1.6126,1.6091,1.6046,1.6023,1.5968,1.5936,1.5891,1.589,1.5938,1.5776,1.5842,1.5766,1.5766,1.5725,1.5726,1.5516,1.5713,1.5714,1.5714,1.5714,0,1.6267,1.619,1.6204,1.6151,1.6065,1.6082,1.5994,1.5983,1.5955,1.5897,1.5927,1.587,1.5876,1.5818,1.5817,1.5722,1.5709,1.57,1.5699,1.5694,1.5694,1.5666,1.5673,1.5708,1.571,1.5711,1.5712,0,1.6106,1.6114,1.6024,1.6004,1.5997,1.5934,1.5914,1.5862,1.5859,1.5784,1.5768,1.5759,1.5692,1.5689,1.5611,1.561,1.5493,1.5507,1.5506,1.5506,1.5428,1.5433,1.5187,1.5153,1.5378,1.5376,1.5375,0,1.6001,1.5944,1.5919,1.5885,1.5868,1.5813,1.5779,1.5793,1.5756,1.5712,1.5663,1.5601,1.5551,1.5441,1.5423,1.5362,1.537,1.5289,1.5361,1.5356,1.5361,1.5362,1.5353,1.5272,1.527,1.5268,1.5266,0,1.5812,1.5819,1.5772,1.5726,1.5686,1.5649,1.5615,1.5584,1.5593,1.5549,1.5484,1.5445,1.5367,1.5301,1.5243,1.522,1.5241,1.5245,1.5223,1.5213,1.5212,1.5205,1.546,1.5249,1.525,1.5252,1.5253,1.5253,1.5671,1.5621,1.5596,1.5541,1.5519,1.5486,1.5436,1.5428,1.5375,1.5316,1.5327,1.5252,1.5215,1.514,1.5113,1.505,1.5077,1.5047,1.5038,1.5029,1.5017,1.5229,1.504,1.5041,1.5041,1.5042,1.5042,0,1.5478,1.5465,1.5416,1.5369,1.5325,1.5359,1.5322,1.5281,1.5216,1.5184,1.5136,1.5058,1.4995,1.4974,1.4912,1.4865,1.4873,1.4847,1.4847,1.484,1.5,1.5023,1.4842,1.4842,1.4842,1.4842,1.4842,1.4842,1.5372,1.5287,1.5291,1.5192,1.5179,1.511,1.5085,1.5053,1.5027,1.4941,1.4891,1.4881,1.4851,1.4786,1.4727,1.4723,1.4695,1.4663,1.4662,1.481,1.483,1.4848,1.4869,1.4659,1.4659,1.4506,1.4505,1.4504]}]]